[[{"header":{"parameterUnit":"m.s-1","parameterCategory":1,"la1":30.2991,"la2":30.254,"lo1":-89.0895,"lo2":-89.0444,"dy":0.0017,"dx":0.0017,"nx":28,"ny":28,"refTime":"2023-08-04T09:00:00:Z","depth":0,"parameterNumber":2,"parameterNumberName":"U-component_of_WINDS"},"data":[0,0,0,0,0,0,0,0,0,0,0,0,0,0,0,0,0,0,0,0,0,0,0,0,0,0,0,0,0,0,0,0,0,0,0,0,0,0,0,0,0,0,0,0,0,0,0,0,0,0,0,0,0,0,0,0,0,0,4.3903,4.3904,0,4.4004,4.4005,4.4006,4.3942,4.3939,4.3936,4.3933,4.4035,4.4041,4.4046,0,0,0,0,0,0,0,0,0,0,0,0,0,4.3651,4.3656,4.3903,4.3904,4.3906,4.4004,4.4005,4.4006,4.3942,4.3938,4.3935,4.3931,4.4034,4.404,4.4047,0,0,0,0,0,0,0,0,0,0,0,0,0,4.3757,4.3658,4.3903,4.3885,4.3885,4.4003,4.4005,4.4007,4.3943,4.3938,4.3934,4.393,4.4031,4.4039,4.4048,4.4189,0,0,4.4073,4.4077,0,0,0,0,0,0,0,0,4.3751,4.3766,4.3887,4.3887,4.3886,4.3955,4.3954,4.4068,4.3944,4.3921,4.3933,4.3927,4.4012,4.4022,4.4051,4.4194,4.4198,4.4074,4.4079,4.4082,4.4085,0,0,0,0,0,0,0,4.3744,4.3762,4.3943,4.3888,4.3888,4.3871,4.3881,4.3975,4.3991,4.3922,4.3918,4.3931,4.4011,4.4043,4.4053,4.42,4.4073,4.4081,4.4086,4.4089,4.4458,4.4463,0,0,0,0,0,0,4.3738,4.3756,4.394,4.3946,4.3806,4.3879,4.3891,4.3938,4.3989,4.3993,4.3935,4.3927,4.4031,4.4043,4.4056,4.4221,4.4082,4.409,4.4095,4.4453,4.4459,4.4464,0,0,0,0,0,0,4.3733,4.3755,4.3936,4.385,4.3871,4.3888,4.3942,4.3942,4.3973,4.3999,4.4001,4.3964,4.4028,4.4044,4.4155,4.4224,4.4094,4.4101,4.4448,4.4455,4.4462,4.4554,0,0,0,0,0,0,4.3726,4.3754,4.3809,4.3852,4.3876,4.4034,4.3946,4.3947,4.3988,4.398,4.4027,4.403,4.4026,4.4143,4.4163,4.4233,4.4108,4.4441,4.4451,4.4459,4.4545,4.4564,4.458,0,0,0,0,0,4.3717,4.3832,4.3812,4.3835,4.3945,4.4039,4.4053,4.4045,4.3994,4.4048,4.4063,4.4029,4.4213,4.4155,4.4177,4.425,4.4437,4.4448,4.4459,4.4537,4.456,4.4579,0,0,0,0,0,0,4.3798,4.3837,4.3816,4.3948,4.399,4.4027,4.4096,4.407,4.4128,4.4118,4.4106,4.4117,4.4232,4.4252,4.4187,4.4387,4.4317,4.4333,4.4369,4.4391,4.4408,4.4399,4.4115,0,0,0,0,0,4.3831,4.3904,4.3934,4.4048,4.407,4.408,4.412,4.411,4.4153,4.4171,4.4195,4.4238,4.4304,4.4349,4.4413,4.4548,4.4555,4.4609,4.4626,4.464,4.4653,4.4722,4.4745,4.45,4.45,4.45,0,0,4.39,4.393,4.3978,4.4064,4.4096,4.417,4.4095,4.4178,4.4232,4.4184,4.4288,4.4307,4.4354,4.4477,4.4532,4.4497,4.4723,4.4654,4.4665,4.4671,4.4735,4.4758,4.4779,4.4507,4.4506,4.4505,0,0,4.4063,4.4095,4.419,4.4223,4.4271,4.4276,4.4299,4.434,4.435,4.4456,4.4419,4.4483,4.4601,4.4634,4.4666,4.4838,4.4806,4.4859,4.4948,4.5015,4.5034,4.5051,4.5108,4.513,4.4872,4.4873,4.4873,0,4.4142,4.4253,4.4243,4.4327,4.4364,4.4323,4.4418,4.4451,4.4518,4.4544,4.4504,4.4647,4.4677,4.4804,4.4845,4.4874,4.4897,4.4853,4.5033,4.505,4.5065,4.5119,4.5141,4.4878,4.4878,4.4877,4.4877,0,4.4346,4.4423,4.4494,4.4558,4.4604,4.4694,4.4695,4.4743,4.4728,4.4737,4.4842,4.4875,4.4942,4.4972,4.496,4.5097,4.5073,4.5034,4.4963,4.5094,4.5145,4.5166,4.4887,4.4885,4.4883,4.4882,0,0,4.4563,4.4618,4.4644,4.467,4.4719,4.4778,4.4864,4.4929,4.4968,4.5015,4.5085,4.5183,4.5145,4.5182,4.5173,4.5232,4.536,4.5185,4.5185,4.5213,4.5508,4.5535,4.5559,4.534,4.5344,4.5348,4.5502,0,4.4725,4.4875,4.4867,4.5007,4.5076,4.5036,4.511,4.5147,4.5157,4.5216,4.5226,4.5294,4.5242,4.5263,4.532,4.5333,4.5419,4.5322,4.5402,4.5405,4.5388,4.5587,4.5616,4.5761,4.5523,4.5526,4.5529,0,4.4936,4.4987,4.5134,4.5168,4.5197,4.5264,4.532,4.5378,4.5418,4.542,4.546,4.544,4.5524,4.5452,4.5566,4.55,4.5532,4.5544,4.5549,4.5554,4.5473,4.5593,4.5808,4.5828,4.5561,4.5558,4.5556,0,4.5074,4.5181,4.5281,4.5305,4.5349,4.5396,4.5417,4.5452,4.549,4.554,4.5564,4.5623,4.5655,4.57,4.5696,4.5645,4.581,4.5739,4.5812,4.5812,4.5847,4.5844,4.6065,4.5873,4.5873,4.5873,4.5872,0,4.5254,4.5345,4.5343,4.5404,4.5503,4.5492,4.5589,4.5604,4.5635,4.5697,4.5668,4.5726,4.5718,4.5776,4.5773,4.5865,4.5881,4.5883,4.5881,4.5884,4.5884,4.5903,4.5892,4.5878,4.5877,4.5876,4.5875,0,4.5425,4.5428,4.5534,4.5566,4.5576,4.5646,4.5673,4.573,4.5736,4.5814,4.5832,4.5841,4.5908,4.5908,4.5985,4.5982,4.6094,4.6082,4.608,4.6077,4.6148,4.614,4.6387,4.6417,4.6209,4.6211,4.6213,0,4.5539,4.5607,4.5645,4.5684,4.5706,4.577,4.5808,4.5799,4.584,4.5888,4.5938,4.6001,4.6051,4.6159,4.6172,4.6229,4.6216,4.6299,4.6224,4.6224,4.6212,4.6207,4.6212,4.6313,4.6315,4.6317,4.6318,0,4.5739,4.5736,4.5792,4.5847,4.5893,4.5937,4.5977,4.6011,4.6005,4.6052,4.6119,4.6158,4.6234,4.6296,4.6351,4.637,4.6342,4.6342,4.6361,4.6363,4.6358,4.6357,4.6116,4.6336,4.6334,4.6333,4.6332,4.6331,4.5882,4.5938,4.5972,4.6035,4.6063,4.6101,4.6154,4.6166,4.6222,4.6282,4.6274,4.6347,4.6381,4.6452,4.6475,4.6532,4.6502,4.6531,4.6538,4.6544,4.655,4.6351,4.6542,4.6542,4.6541,4.6541,4.654,0,4.6076,4.6096,4.6153,4.6209,4.6257,4.6227,4.6269,4.631,4.6375,4.641,4.6458,4.6533,4.6592,4.6609,4.6665,4.6707,4.6695,4.6722,4.6717,4.6721,4.6575,4.6551,4.673,4.673,4.673,4.6729,4.6729,4.6729,4.6183,4.6276,4.6276,4.6382,4.64,4.6471,4.6497,4.653,4.6557,4.6641,4.669,4.67,4.6726,4.6784,4.6835,4.6839,4.6859,4.689,4.6888,4.6751,4.6732,4.6713,4.669,4.6895,4.6896,4.7028,4.7029,4.703]},{"header":{"parameterUnit":"m.s-1","parameterCategory":1,"la1":30.2991,"la2":30.254,"lo1":-89.0895,"lo2":-89.0444,"dy":0.0017,"dx":0.0017,"nx":28,"ny":28,"refTime":"2023-08-04T09:00:00:Z","depth":0,"parameterNumber":3,"parameterNumberName":"V-component_of_WINDS"},"data":[0,0,0,0,0,0,0,0,0,0,0,0,0,0,0,0,0,0,0,0,0,0,0,0,0,0,0,0,0,0,0,0,0,0,0,0,0,0,0,0,0,0,0,0,0,0,0,0,0,0,0,0,0,0,0,0,0,0,2.2047,2.2049,0,2.2158,2.2159,2.2161,2.2167,2.2166,2.2164,2.2163,2.2277,2.2281,2.2285,0,0,0,0,0,0,0,0,0,0,0,0,0,2.184,2.1844,2.2047,2.2049,2.205,2.2158,2.2159,2.2161,2.2167,2.2165,2.2164,2.2162,2.2275,2.228,2.2285,0,0,0,0,0,0,0,0,0,0,0,0,0,2.1938,2.1845,2.2047,2.2066,2.2069,2.2158,2.216,2.2161,2.2167,2.2165,2.2164,2.2162,2.2274,2.228,2.2286,2.2364,0,0,2.2306,2.2308,0,0,0,0,0,0,0,0,2.1933,2.1946,2.2062,2.2065,2.2068,2.2147,2.2128,2.2229,2.2168,2.213,2.2163,2.2161,2.2235,2.2244,2.2269,2.2369,2.2374,2.2306,2.231,2.2313,2.2314,0,0,0,0,0,0,0,2.1926,2.1941,2.2091,2.2064,2.2068,2.2069,2.2081,2.2147,2.2192,2.2133,2.2134,2.2147,2.2236,2.2263,2.2272,2.2375,2.2306,2.2312,2.2315,2.2318,2.2542,2.2544,0,0,0,0,0,0,2.1916,2.1936,2.2088,2.2095,2.1994,2.2074,2.2087,2.2123,2.2191,2.22,2.2148,2.2147,2.2254,2.2265,2.2276,2.237,2.2313,2.2319,2.2322,2.2539,2.2542,2.2544,0,0,0,0,0,0,2.1911,2.1929,2.2083,2.2015,2.2035,2.208,2.212,2.2127,2.2154,2.2203,2.2211,2.2168,2.2252,2.2267,2.2341,2.2374,2.2321,2.2327,2.2537,2.254,2.2543,2.2558,0,0,0,0,0,0,2.1905,2.1927,2.1958,2.2016,2.2039,2.2147,2.2122,2.213,2.2164,2.2163,2.2223,2.2231,2.2252,2.2332,2.2348,2.2382,2.2332,2.2534,2.2538,2.2542,2.2555,2.2562,2.2567,0,0,0,0,0,2.1898,2.1958,2.1959,2.1978,2.2077,2.2149,2.2162,2.2185,2.2167,2.2197,2.2229,2.2229,2.2368,2.2339,2.2357,2.2394,2.2532,2.2537,2.2542,2.2552,2.256,2.2567,0,0,0,0,0,0,2.1903,2.1966,2.1968,2.2049,2.2093,2.215,2.2189,2.2193,2.2243,2.224,2.2266,2.228,2.2352,2.2381,2.2348,2.2471,2.2448,2.2457,2.245,2.2458,2.2464,2.2455,2.2337,0,0,0,0,0,2.1914,2.1967,2.2019,2.2085,2.2107,2.2144,2.2176,2.219,2.2237,2.2256,2.2292,2.2338,2.2391,2.2426,2.2479,2.2559,2.2571,2.2593,2.2599,2.2604,2.2611,2.2654,2.2663,2.256,2.256,2.256,0,0,2.1937,2.1977,2.2009,2.2087,2.2123,2.2177,2.216,2.2218,2.2258,2.2264,2.2336,2.2364,2.2417,2.2494,2.253,2.252,2.2642,2.261,2.2613,2.2618,2.266,2.2669,2.2678,2.2563,2.2563,2.2562,0,0,2.2005,2.2042,2.21,2.2136,2.219,2.2214,2.2228,2.2283,2.2302,2.2374,2.238,2.2427,2.252,2.2556,2.2587,2.2667,2.2668,2.2683,2.2715,2.2756,2.2764,2.2772,2.2799,2.2808,2.269,2.269,2.269,0,2.2026,2.2107,2.213,2.2187,2.222,2.2228,2.2287,2.2321,2.239,2.2412,2.24,2.2514,2.2551,2.2635,2.2655,2.268,2.2695,2.2676,2.2761,2.2769,2.2776,2.2802,2.2812,2.2691,2.2691,2.2691,2.2691,0,2.213,2.2186,2.2226,2.2291,2.233,2.2387,2.2418,2.2454,2.2464,2.2489,2.2561,2.2604,2.2664,2.2686,2.2696,2.2772,2.2763,2.2756,2.2733,2.2787,2.2812,2.2822,2.2693,2.2693,2.2692,2.2692,0,0,2.2206,2.2281,2.2295,2.2324,2.2384,2.2427,2.2485,2.2543,2.2573,2.2619,2.2667,2.2744,2.2737,2.2772,2.2787,2.2823,2.2881,2.2811,2.2813,2.2822,2.2965,2.297,2.2981,2.2883,2.2885,2.2887,2.296,0,2.2279,2.2382,2.2403,2.2491,2.2542,2.255,2.2599,2.2641,2.2665,2.2712,2.2739,2.2792,2.278,2.28,2.2837,2.2867,2.2911,2.2862,2.2927,2.2929,2.2913,2.2994,2.3,2.3068,2.297,2.2972,2.2973,0,2.238,2.2427,2.252,2.2571,2.2594,2.2638,2.2692,2.2737,2.2784,2.2799,2.2836,2.2847,2.2906,2.288,2.2961,2.2927,2.2955,2.2974,2.2977,2.2983,2.2954,2.3002,2.309,2.3099,2.2989,2.2988,2.2987,0,2.2424,2.2512,2.2578,2.2603,2.2664,2.2695,2.2722,2.2767,2.28,2.2847,2.2869,2.2922,2.2952,2.2993,2.3016,2.2996,2.3095,2.3072,2.3108,2.3108,2.3129,2.3127,2.3221,2.3148,2.3148,2.3148,2.3148,0,2.2503,2.256,2.2598,2.2639,2.2702,2.2726,2.2787,2.2814,2.2853,2.2899,2.2909,2.2951,2.2981,2.3027,2.3047,2.311,2.3123,2.3136,2.3141,2.3135,2.3133,2.3153,2.3149,2.3151,2.315,2.3149,2.3149,0,2.2563,2.2592,2.2664,2.2716,2.273,2.2774,2.2818,2.2858,2.2882,2.2939,2.2954,2.2991,2.3046,2.3074,2.3143,2.3156,2.3227,2.3229,2.3211,2.3212,2.3247,2.3243,2.3356,2.3372,2.329,2.329,2.3291,0,2.2612,2.2655,2.2711,2.2742,2.2769,2.282,2.2853,2.2877,2.2912,2.2967,2.2999,2.3055,2.31,2.3188,2.3221,2.3273,2.3276,2.3312,2.3284,2.3276,2.3275,2.3271,2.3275,2.3317,2.3318,2.3318,2.3319,0,2.2695,2.2706,2.2754,2.2806,2.2845,2.2888,2.293,2.2954,2.2985,2.3023,2.3079,2.3114,2.3184,2.3238,2.3292,2.332,2.3324,2.3327,2.3338,2.3333,2.332,2.3326,2.3223,2.3325,2.3324,2.3324,2.3323,2.3323,2.275,2.2788,2.2832,2.2885,2.2918,2.2957,2.2996,2.3024,2.3071,2.3129,2.3141,2.32,2.3244,2.3317,2.3346,2.3392,2.3384,2.34,2.3404,2.3407,2.3408,2.3313,2.3402,2.3402,2.3402,2.3402,2.3401,0,2.2832,2.286,2.2908,2.2966,2.3006,2.3007,2.3052,2.3086,2.3138,2.3179,2.3223,2.3286,2.3339,2.3375,2.3428,2.3458,2.3461,2.3471,2.3468,2.3474,2.3413,2.3398,2.3467,2.3467,2.3467,2.3467,2.3467,2.3467,2.2879,2.2943,2.2959,2.3039,2.3068,2.3125,2.3151,2.3186,2.3218,2.3289,2.3332,2.3355,2.3394,2.345,2.3497,2.3507,2.3525,2.3535,2.3544,2.3486,2.3479,2.3472,2.3458,2.3539,2.3539,2.3601,2.3602,2.3602]}]]